Location: *
(45.5667°S, 177.5167°W)
Time: 23:30:01
(UTC+00:00)

Cosmos 1939 Rocket - Pass Details

Date: 29 May 2022
Orbit: 531 x 580 km, 97.4° (Epoch: 24 June)

Event Time Altitude Azimuth Distance (km) Brightness Sun altitude
Exits shadow 05:06:17 - 157° (SSE) 2,446 5.7 -8.4°
Reaches altitude 10° 05:07:54 10° 148° (SSE) 1,820 5.0 -8.7°
Maximum altitude 05:11:27 32° 84° (E) 944 3.6 -9.3°
Drops below altitude 10° 05:14:58 10° 19° (NNE) 1,800 5.5 -9.9°
Sets 05:17:14 0° 9° (N) 2,686 6.5 -10.2°
